Date String (YYYY-MM-DD hh:mm:ss) UTC,Instrument flags,Ambient pressure (hPa),Sample flow (lpm),Bypass flow (lpm),Sample temperature (°C),Ambient temperature (°C),ASC tube jacket temperature (°C),LED temperature (°C),Box temperature (°C),Sample RH (%),Span deviation,Mass concentration (μg/m³),Mass concentration (μg/m³),Mass concentration (μg/m³)
DateTimeUTC,F1_M11,P_M11,Q1_M11,Q2_M11,T1_M11,T2_M11,T3_M11,T4_M11,T5_M11,U1_M11,ZSPAN_M11,X0_M11,X2_M11,X1_M11
2022-05-03 21:00:00,,0819.8,5.00,0.00,25.2,24.3,00.0,34.1,27.1,20.5,-001.4,0012.79,0009.44,0009.15
2022-05-03 21:01:00,,0819.8,5.01,0.00,25.2,24.4,00.0,34.1,27.1,20.7,-001.5,0012.82,0009.45,0009.17
2022-05-03 21:02:00,,0819.8,5.00,0.00,25.2,24.4,00.0,34.1,27.1,20.7,-001.6,0012.79,0009.45,0009.17
2022-05-03 21:03:00,,0819.8,5.00,0.00,25.2,24.4,00.0,34.1,27.1,20.6,-001.7,0012.90,0009.49,0009.18
2022-05-03 21:04:00,,0819.8,5.01,0.00,25.2,24.4,00.0,34.1,27.1,20.4,-001.5,0012.91,0009.51,0009.21
2022-05-03 21:05:00,,0819.8,5.02,0.00,25.3,24.4,00.0,34.1,27.1,20.4,-001.5,0012.78,0009.55,0009.26
2022-05-03 21:06:00,,0819.9,4.99,0.00,25.3,24.4,00.0,34.1,27.1,20.5,-001.8,0012.63,0009.58,0009.28
2022-05-03 21:07:00,,0819.9,5.02,0.00,25.3,24.4,00.0,34.1,27.1,20.7,-001.9,0012.63,0009.59,0009.30
2022-05-03 21:08:00,,0819.9,5.00,0.00,25.3,24.4,00.0,34.1,27.1,20.4,-001.8,0012.61,0009.60,0009.33
2022-05-03 21:09:00,,0819.9,4.99,0.00,25.3,24.4,00.0,34.2,27.1,20.5,-001.8,0012.63,0009.62,0009.36
2022-05-03 21:10:00,,0820.0,5.01,0.00,25.3,24.4,00.0,34.2,27.2,20.8,-001.9,0012.71,0009.67,0009.40
2022-05-03 21:11:00,,0820.0,4.99,0.00,25.3,24.4,00.0,34.2,27.2,20.7,-001.8,0012.65,0009.67,0009.41
2022-05-03 21:12:00,,0820.0,5.00,0.00,25.3,24.4,00.0,34.2,27.1,20.5,-001.8,0012.70,0009.70,0009.43
2022-05-03 21:13:00,,0820.0,5.00,0.00,25.3,24.4,00.0,34.2,27.1,20.5,-001.9,0012.83,0009.72,0009.45
2022-05-03 21:14:00,,0820.0,5.00,0.00,25.3,24.4,00.0,34.2,27.1,20.5,-002.0,0012.77,0009.72,0009.47
2022-05-03 21:15:00,,0819.9,5.00,0.00,25.3,24.4,00.0,34.2,27.2,20.5,-002.2,0012.80,0009.74,0009.48
2022-05-03 21:16:00,,0819.9,5.00,0.00,25.3,24.4,00.0,34.2,27.1,20.1,-002.1,0012.81,0009.77,0009.51
2022-05-03 21:17:00,,0819.9,5.00,0.00,25.3,24.4,00.0,34.2,27.1,19.9,-002.0,0012.81,0009.79,0009.53
2022-05-03 21:18:00,,0819.9,5.01,0.00,25.3,24.5,00.0,34.2,27.2,20.1,-002.1,0012.95,0009.86,0009.57
2022-05-03 21:19:00,,0819.9,5.00,0.00,25.3,24.5,00.0,34.2,27.2,20.2,-002.1,0013.08,0009.90,0009.59
2022-05-03 21:20:00,,0819.8,4.99,0.00,25.3,24.5,00.0,34.2,27.2,20.5,-002.2,0013.04,0009.90,0009.59
2022-05-03 21:21:00,,0819.9,5.01,0.00,25.3,24.5,00.0,34.2,27.2,20.6,-002.3,0013.09,0009.90,0009.58
2022-05-03 21:22:00,,0819.9,5.00,0.00,25.3,24.5,00.0,34.2,27.2,20.7,-002.4,0013.30,0009.93,0009.59
2022-05-03 21:23:00,,0820.0,5.00,0.00,25.3,24.5,00.0,34.2,27.2,20.8,-002.4,0013.43,0009.91,0009.59
2022-05-03 21:24:00,,0819.9,5.00,0.00,25.3,24.5,00.0,34.2,27.2,20.9,-002.3,0013.44,0009.87,0009.57
2022-05-03 21:25:00,,0819.9,4.99,0.00,25.3,24.5,00.0,34.2,27.2,20.9,-002.3,0014.23,0009.86,0009.56
2022-05-03 21:26:00,,0819.9,5.01,0.00,25.3,24.5,00.0,34.2,27.2,20.6,-002.2,0014.54,0009.87,0009.56
2022-05-03 21:27:00,,0819.9,4.99,0.00,25.4,24.4,00.0,34.2,27.2,20.4,-002.0,0014.82,0009.87,0009.56
2022-05-03 21:28:00,,0819.8,5.00,0.00,25.4,24.4,00.0,34.2,27.2,20.5,-002.0,0015.02,0009.91,0009.57
2022-05-03 21:29:00,,0819.8,5.01,0.00,25.4,24.5,00.0,34.2,27.2,20.5,-001.9,0014.97,0009.90,0009.61
2022-05-03 21:30:00,,0819.8,5.00,0.00,25.4,24.5,00.0,34.2,27.1,20.4,-001.9,0015.76,0009.91,0009.63
2022-05-03 21:31:00,,0819.7,4.99,0.00,25.4,24.5,00.0,34.2,27.2,20.4,-001.9,0015.87,0009.96,0009.68
2022-05-03 21:32:00,,0819.5,5.01,0.00,25.4,24.5,00.0,34.3,27.2,20.5,-001.8,0015.93,0009.97,0009.72
2022-05-03 21:33:00,,0819.4,5.00,0.00,25.4,24.5,00.0,34.3,27.2,20.9,-001.8,0016.01,0010.01,0009.76
2022-05-03 21:34:00,,0819.3,4.99,0.00,25.4,24.5,00.0,34.3,27.2,20.9,-001.9,0016.04,0010.07,0009.81
2022-05-03 21:35:00,,0819.2,5.00,0.00,25.4,24.4,00.0,34.3,27.1,21.2,-001.8,0015.90,0010.11,0009.84
2022-05-03 21:36:00,,0819.1,5.00,0.00,25.4,24.4,00.0,34.3,27.2,20.9,-001.8,0015.20,0010.17,0009.88
2022-05-03 21:37:00,,0819.0,4.99,0.00,25.3,24.4,00.0,34.3,27.2,21.2,-001.7,0015.01,0010.20,0009.89
2022-05-03 21:38:00,,0818.9,5.00,0.00,25.4,24.4,00.0,34.3,27.1,21.4,-001.9,0014.85,0010.18,0009.87
2022-05-03 21:39:00,,0818.9,5.00,0.00,25.4,24.4,00.0,34.3,27.1,21.1,-002.3,0014.93,0010.18,0009.84
2022-05-03 21:40:00,,0818.9,4.99,0.00,25.3,24.4,00.0,34.3,27.2,20.8,-002.4,0014.92,0010.15,0009.80
2022-05-03 21:41:00,,0818.9,5.00,0.00,25.3,24.4,00.0,34.3,27.2,20.7,-002.5,0014.18,0010.12,0009.77
2022-05-03 21:42:00,,0818.9,5.00,0.00,25.3,24.3,00.0,34.3,27.1,20.7,-002.7,0014.06,0010.12,0009.75
2022-05-03 21:43:00,,0818.9,5.00,0.00,25.3,24.3,00.0,34.3,27.1,20.8,-002.7,0014.06,0010.14,0009.74
2022-05-03 21:44:00,,0818.9,4.99,0.00,25.3,24.3,00.0,34.3,27.2,20.8,-002.6,0013.91,0010.13,0009.72
2022-05-03 21:45:00,,0818.9,4.99,0.00,25.3,24.3,00.0,34.3,27.2,20.6,-002.7,0013.75,0010.12,0009.70
2022-05-03 21:46:00,,0818.9,5.01,0.00,25.3,24.3,00.0,34.3,27.1,20.7,-002.7,0014.08,0010.14,0009.71
2022-05-03 21:47:00,,0818.9,5.00,0.00,25.3,24.3,00.0,34.3,27.2,20.9,-002.6,0014.46,0010.12,0009.71
2022-05-03 21:48:00,,0818.8,4.99,0.00,25.3,24.3,00.0,34.3,27.2,20.9,-002.7,0014.89,0010.08,0009.71
2022-05-03 21:49:00,,0818.8,4.99,0.00,25.3,24.3,00.0,34.3,27.2,20.9,-002.7,0014.89,0010.10,0009.72
2022-05-03 21:50:00,,0818.8,5.01,0.00,25.3,24.4,00.0,34.3,27.1,21.0,-002.5,0014.63,0010.09,0009.74
2022-05-03 21:51:00,,0818.8,4.99,0.00,25.3,24.4,00.0,34.3,27.2,20.8,-002.2,0014.60,0010.08,0009.73
2022-05-03 21:52:00,,0818.8,5.01,0.00,25.3,24.4,00.0,34.3,27.1,20.6,-002.1,0014.65,0010.10,0009.73
2022-05-03 21:53:00,,0818.8,5.00,0.00,25.3,24.4,00.0,34.3,27.1,20.6,-001.9,0014.68,0010.11,0009.73
2022-05-03 21:54:00,,0818.8,5.00,0.00,25.3,24.4,00.0,34.3,27.2,20.5,-001.6,0014.63,0010.09,0009.72
2022-05-03 21:55:00,,0818.7,4.99,0.00,25.3,24.4,00.0,34.3,27.2,20.7,-001.6,0014.67,0010.09,0009.73
2022-05-03 21:56:00,,0818.7,5.01,0.00,25.3,24.4,00.0,34.3,27.2,21.0,-001.4,0014.63,0010.06,0009.69
2022-05-03 21:57:00,,0818.6,4.99,0.00,25.3,24.4,00.0,34.3,27.2,20.9,-001.2,0014.30,0010.02,0009.66
2022-05-03 21:58:00,,0818.6,5.00,0.00,25.3,24.5,00.0,34.3,27.3,20.8,-001.3,0013.97,0010.02,0009.65
2022-05-03 21:59:00,,0818.5,5.01,0.00,25.4,24.5,00.0,34.3,27.3,20.8,-001.4,0013.47,0010.04,0009.65
